www.pogodaiklimat.ru

Погода и климат >> Архив погоды >> Доминиканская Республика >> Las Americas


ПОГОДА в Las Americas

  • Прогноз погоды в Las Americas
  • Монитор погоды в Las Americas
  • Климат города

АРХИВ ПОГОДЫ в Las Americas

Время (UTC), дата Ветер
(напр.,м/с)
 
Видим.   Явления Облачность Т
(С)
Тd
(С)
f
(%)
Тe
(С)
Тes
(С)
Комфортность P
(гПа)
Po
(гПа)
Тmin
(С)
Tmax
(С)
R
(мм)
R24
(мм)
S
(см)
06 8.08 С 2 14 км пыль {туман} 3/3 540 м
[Cu med, cong]
+25.7 +24.3 92 +36 +36 очень
душно
1017.4 1017.0 +23.7 +33.2
09 8.08 нст 2 12 км пыль {туман} 3/3 540 м
[Cu med, cong]
+23.8 +22.8 94 +31 +31 очень
душно
1016.6 1017.0
12 8.08 С 2 10 км пыль {туман} 3/1 540 м
[Cu med, cong Ac trans]
+25.6 +23.8 90 +35 +38 очень
душно
1018.3 1018.0 +23.7 +33.2
15 8.08 СВ 3 10 км пыль {туман} 4/4 660 м
[Cu med, cong]
+31.0 +23.7 65 +42 +51 опасность
перегрева
1018.2 1018.0
18 8.08 ЮВ 3 10 км пыль {туман} 5/4 720 м
[Cu med, cong Ac trans]
+32.8 +23.5 58 +44 +53 опасность
перегрева
1017.0 1017.0 +23.7 +33.4
00 9.08 ЮВ 3 14 км пыль {туман} 5/5 600 м
[Cu med, cong]
+27.8 +24.0 80 +39 +39 очень
душно
1016.5 1017.0 +25.6 +33.5
09 9.08 С 2 14 км пыль {туман} 3/3 480 м
[Cu med, cong]
+23.6 +22.6 94 +31 +31 очень
душно
1016.3 1016.0
12 9.08 С 2 14 км пыль {туман} 1/1 500 м
[Cu Sc]
+25.5 +24.0 91 +35 +38 очень
душно
1017.2 1017.0 +23.9 +33.5
15 9.08 ЮВ 3 12 км пыль {туман} 4/4 750 м
[Cu med, cong]
+31.5 +22.3 58 +41 +50 опасность
перегрева
1017.7 1018.0
18 9.08 Ю 5 14 км пыль {туман} 9/4 660 м
[Cb cap Cs]
+33.4 +23.7 57 +45 +50 опасность
перегрева
1016.7 1017.0 +23.9 +34.5
21 9.08 Ю 3 14 км пыль {туман} 6/4 660 м
[Cb cap Cs]
+31.0 +23.1 63 +41 +44 опасность
перегрева
1014.9 1015.0
00 10.08 СВ 2 14 км пыль {туман} 5/4 600 м
[Cb cap Cs]
+27.0 +23.9 83 +37 +37 очень
душно
1016.0 1016.0 +23.9 +34.5
03 10.08 СВ 2 10 км пыль {туман} 5/3 600 м
[Cu med, cong Cs]
+25.8 +23.7 88 +35 +35 очень
душно
1018.0 1018.0
06 10.08 СВ 2 14 км пыль {туман} 4/4 540 м
[Cb cap Cs]
+24.8 +23.1 90 +33 +33 очень
душно
1016.6 1017.0 +23.9 +34.5
09 10.08 С 2 13 км гроза без осадков {туман} 5/5 500 м
[Cb cap]
+23.4 +22.0 92 +32 +32 очень
душно
1016.0 1016.0
12 10.08 С 2 13 км пыль {гроза, туман} 3/3 480 м
[Cb cap Ci fib]
+26.0 +23.3 85 +35 +37 очень
душно
1016.3 1016.0 +23.4 +34.5
15 10.08 Ю 4 13 км пыль {туман} 5/5 600 м
[Cu med, cong Ci]
+30.8 +23.2 64 +41 +47 опасность
перегрева
1017.1 1017.0
18 10.08 Ю 4 8000 м осадки на расстоянии {гроза, туман} 5/5 540 м
[Cb cap Cs]
+31.7 +22.7 59 +41 +48 опасность
перегрева
1016.0 1016.0 +23.4 +32.6
00 11.08 ЮВ 2 14 км пыль {гроза, туман} 9/6 600 м
[Cb cap Ac As Cs]
+28.6 +24.6 79 +41 +41 опасность
перегрева
1016.2 1016.0 +26.0 +32.0
03 11.08 СВ 3 13 км пыль {туман} 6/3 540 м
[Cu Sc Cs]
+25.9 +23.9 89 +36 +36 очень
душно
1018.0 1018.0
06 11.08 СВ 3 13 км пыль {ливн. осадки, туман} 6/3 540 м
[Cu med, cong Cs]
+24.0 +22.9 94 +32 +32 очень
душно
1017.1 1017.0 +23.4 +32.6 0.0
12 11.08 СВ 2 12 км пыль {туман} 4/1 540 м
[Cu med, cong Ci fib]
+25.1 +22.8 87 +33 +36 очень
душно
1017.5 1018.0 +23.0 +32.6
15 11.08 В 3 12 км пыль {туман} 6/6 600 м
[Cb cap Cs]
+30.4 +23.3 66 +41 +47 опасность
перегрева
1018.9 1019.0
18 11.08 ЮВ 5 14 км пыль {туман} 8/6 660 м
[Cb cap Cs]
+33.6 +23.3 55 +44 +48 опасность
перегрева
1017.0 1017.0 +23.0 +34.0
21 11.08 СВ 2 14 км пыль {туман} 8/8 600 м
[Cb cap Cs]
+30.5 +21.6 59 +39 +40 очень
душно
1016.3 1016.0
00 12.08 С 2 14 км пыль {туман} 5/4 540 м
[Cb cap Cs]
+27.0 +22.4 76 +35 +35 очень
душно
1017.6 1018.0 +23.0 +34.0
03 12.08 СВ 2 14 км пыль {туман} 6/3 540 м
[Cu med, cong Ci fib]
+25.0 +22.3 85 +33 +33 очень
душно
1019.0 1019.0
06 12.08 С 2 14 км пыль {туман} 4/3 540 м
[Cu med, cong Ci fib]
+24.5 +22.4 88 +32 +32 очень
душно
1017.8 1018.0 +23.0 +34.0
09 12.08 С 2 14 км пыль {туман} 4/3 480 м
[Cb cap Ci fib]
+24.3 +22.9 92 +32 +32 очень
душно
1017.4 1017.0
15 12.08 В 3 14 км мгла {туман} 5/5 600 м
[Cb cap]
+30.5 +23.9 68 +42 +50 опасность
перегрева
1018.8 1019.0
18 12.08 СВ 4 7000 м гроза, ливневой дождь {туман} 10/9 420 м
[Cb cap As op]
+24.5 +22.9 91 +32 +33 очень
душно
1018.7 1019.0 +24.2 +34.5 1
21 12.08 СВ 3 16 км {гроза} 8/6 540 м
[Cb cap Cs]
+25.7 +23.9 90 +35 +37 очень
душно
1016.8 1017.0 6
00 13.08 СВ 3 16 км {гроза} 8/6 540 м
[Cb cap Cs]
+25.7 +23.9 90 +35 +35 очень
душно
1016.8 1017.0 6
03 13.08 СВ 3 16 км {гроза, дождь} 5/4 540 м
[Cu med, cong Ac trans]
+23.7 +22.7 94 +31 +31 очень
душно
1018.5 1019.0
06 13.08 СВ 2 16 км 6/5 480 м
[Cb cap Ac trans Cs]
+23.3 +22.5 95 +32 +32 очень
душно
1017.4 1017.0
09 13.08 СВ 3 16 км 8/8 540 м
[Cu med, cong]
+22.6 +21.8 95 +30 +30 очень
душно
1016.0 1016.0
12 13.08 С 2 14 км пыль 6/4 540 м
[Cu med, cong Ac trans Ci]
+24.5 +23.1 92 +33 +34 очень
душно
1016.6 1017.0 +22.6 +34.5
15 13.08 В 4 14 км пыль {туман} 5/5 660 м
[Cu med, cong]
+29.3 +23.3 70 +40 +46 очень
душно
1016.6 1017.0
18 13.08 ЮВ 2 8000 м осадки на расстоянии {дождь, туман} 8/6 600 м
[Cb cap Ac trans Cs]
+29.6 +24.3 73 +41 +47 опасность
перегрева
1015.0 1015.0 +22.6 +32.5 0.0
21 13.08 Ю 2 16 км {дождь} 5/5 540 м
[Cb cap Ac trans]
+30.0 +25.1 75 +43 +46 опасность
перегрева
1013.5 1014.0 6
00 14.08 штиль 0 8000 м осадки на расстоянии {дождь} 9/9 480 м
[Cb cap]
+25.0 +23.9 94 +34 +34 очень
душно
1014.6 1015.0 +24.5 +32.5 22
03 14.08 СВ 3 16 км 6/6 480 м
[Cu med, cong]
+24.2 +23.3 95 +32 +32 очень
душно
1015.8 1016.0
06 14.08 СВ 3 16 км 3/3 480 м
[Cu med, cong]
+23.8 +22.7 94 +31 +31 очень
душно
1014.8 1015.0 +22.6 +32.5
09 14.08 С 3 16 км 3/3 480 м
[Cu med, cong]
+23.3 +22.4 95 +32 +32 очень
душно
1013.5 1014.0
12 14.08 С 3 16 км 6/4 480 м
[Cu med, cong Cs]
+25.0 +23.1 89 +33 +35 очень
душно
1015.0 1015.0 +23.0 +32.5
15 14.08 СВ 3 16 км 9/6 540 м
[Cu med, cong Cs]
+30.0 +24.4 72 +42 +47 опасность
перегрева
1015.6 1016.0
18 14.08 штиль 0 8000 м осадки на расстоянии {дождь} 9/6 480 м
[Cb cap As op Cs]
+26.0 +23.9 88 +36 +42 очень
душно
1014.9 1015.0 +23.0 +30.5 1
21 14.08 С 2 16 км {дождь} 9/8 480 м
[Cb cap As op Cs]
+27.0 +24.3 85 +38 +38 очень
душно
1013.9 1014.0
00 15.08 С 2 16 км в посл. час дождь 9/8 480 м
[Cb cap Ac trans Cs]
+24.8 +24.1 96 +34 +34 очень
душно
1015.0 1015.0 +23.0 +30.5 2
03 15.08 С 2 16 км 6/3 480 м
[Cu med, cong Cs]
+24.5 +23.8 96 +33 +33 очень
душно
1016.0 1016.0

 

Местоположение метеостанции Las Americas (Доминиканская Республика): широта 18.43 долгота -69.66 высота над уровнем моря 18 м.

В архиве по умолчанию представлена погода в Las Americas за последнюю неделю. Архивные данные за месяц целиком и за предыдущие месяцы, начиная с января 2011 года, Вы можете получить, выбрав интересующий диапазон дат из раскрывающегося списка и нажав кнопку "Ввод!".


*Определитесь, кто Вы:
робот инопланетянин человек

Внимание! Время в таблицах - всемирное. Для получения местного времени необходимо прибавить поправку, которая в Las Americas равна -4 ч.

Смотрите также архив погоды в соседних городах и на ближайших метеорологических станциях:

Погода в Santo Domingo (Доминиканская Республика) (23 км)
Погода в Sabana De La Mar (Доминиканская Республика) (75 км)
Погода в La Romana Int Airport (Доминиканская Республика) (78 км)
Погода в Punta Cana (Доминиканская Республика) (138 км)
Погода в Barahona (Доминиканская Республика) (154 км)
Погода в Santiago (Доминиканская Республика) (158 км)
Погода в Puerto Plata (Доминиканская Республика) (174 км)
Погода в Charlotte Amalie St. Thomas (Виргинские Острова) (496 км)
Погода в Punta de Maisi (Куба) (513 км)
Погода в Queen Beatrix Airport (Аруба) (661 км)

Пояснения к столбцам:

Ветер - указаны скорость ветра в м/с - средняя за 10 мин, порывы в срок и между сроками (в фигурных скобках) и направление, откуда дует ветер: С - северный, СВ - северо-восточный, В - восточный, ЮВ - юго-восточный, Ю - южный, ЮЗ - юго-западный, З - западный, СЗ - северо-западный.
Видимость - горизонтальная дальность видимости в метрах или километрах. При видимости от 1 до 10 км при отсутствии осадков обычно наблюдается дымка, при ухудшении видимости до 1 км и менее - туман. В сухую погоду видимость может ухудшаться дымом, пылью или мглою.
Явления - указаны атмосферные явления, наблюдавшиеся в срок или в последний час перед сроком; фигурными скобками обозначены явления, наблюдавшиеся между сроками (за 1-3 часа до срока); квадратными скобками обозначены град или гололедные отложения с указанием их диаметра в мм.
Облачность - указаны через наклонную черту общая и нижняя облачность в баллах и высота нижней границы облаков в метрах; квадратными скобками обозначены формы облаков: Ci - перистые, Cs - перисто-слоистые, Cc - перисто-кучевые, Ac - высококучевые, As - высокослоистые, Sc - слоисто-кучевые, Ns - слоисто-дождевые, Cu - кучевые, Cb - кучево-дождевые. Подробнее классификацию облаков см. в Атласе облаков (PDF).
T - Температура воздуха - температура, измеренная на высоте 2 м над землей.
Td - Температура точки росы - температура, при понижении до которой содержащийся в воздухе водяной пар достигнет насыщения.
f - Относительная влажность воздуха - влажноcть воздуха, измеренная на высоте 2 м над землей.
Te - Эффективная температура - температура, которую ощущает одетый по сезону человек в тени. Характеристика душности погоды. При расчете учитывается влияние влажности воздуха и скорости ветра на теплоощущения человека.
Tes - Эффективная температура на солнце - температура, которую ощущает человек, с поправкой на солнечный нагрев. Характеристика знойности погоды. Зависит от высоты солнца над горизонтом, облачности и скорости ветра. Ночью, в пасмурную погоду, а также при ветре 12 м/с и более поправка равна нулю.
P - Атмосферное давление - приведенное к уровню моря атмосферное давление.
Po - Атмосферное давление - измеренное на уровне метеостанции атмосферное давление.
Tmin - Минимальная температура - минимум температуры воздуха на высоте 2 м над землей.
Tmax - Максимальная температура - максимум температуры воздуха на высоте 2 м над землей.
R - Количество осадков - Количество выпавших осадков за период времени, мм. При наведении курсора мыши на число - период времени, за который выпало указанное количество осадков.
R24 - Количество осадков - Количество выпавших осадков за 24 часа, мм.
S - Снежный покров - Высота снежного покрова, см. При наведении курсора мыши на число - состояние снежного покрова и степень покрытия местности в баллах.